$Date,$Time,DM0201B,DM0203B,DM0205B,DM0207B,DM0209B
04/30/99,00:00:01,53,329,-25,1,946
04/30/99,00:05:01,39,341,-25,1,946
04/30/99,00:10:01,47,329,-25,1,946
04/30/99,00:15:01,43,318,-25,1,946
04/30/99,00:20:01,56,336,-25,1,946
04/30/99,00:25:01,28,325,-25,1,946
04/30/99,00:30:01,35,307,-25,1,946
04/30/99,00:35:01,56,331,-25,1,946
04/30/99,00:40:01,66,327,-25,1,946
04/30/99,00:45:01,55,314,-25,1,946
04/30/99,00:50:01,31,343,-25,1,946
04/30/99,00:55:01,46,331,-25,1,946
04/30/99,01:00:01,55,331,-25,1,946
04/30/99,01:05:01,68,325,-25,1,946
04/30/99,01:10:01,55,337,-25,1,946
04/30/99,01:15:01,55,348,-25,1,946
04/30/99,01:20:01,56,334,-25,1,946
04/30/99,01:25:01,56,346,-25,1,946
04/30/99,01:30:01,56,346,-25,1,946
04/30/99,01:35:01,56,346,-25,1,946
04/30/99,01:40:01,66,4,-25,1,946
04/30/99,01:45:01,92,1,-25,1,946
04/30/99,01:50:01,81,1,-25,1,946
04/30/99,01:55:01,85,359,-25,1,946
04/30/99,02:00:01,82,1,-25,1,946
04/30/99,02:05:01,106,2,-25,1,946
04/30/99,02:10:01,109,4,-25,1,946
04/30/99,02:15:01,83,17,-25,1,946
04/30/99,02:20:01,68,10,-25,1,946
04/30/99,02:25:01,72,12,-25,1,946
04/30/99,02:30:01,53,18,-25,1,946
04/30/99,02:35:01,74,11,-27,1,946
04/30/99,02:40:01,93,22,-27,1,946
04/30/99,02:45:01,125,21,-27,1,946
04/30/99,02:50:01,91,22,-27,1,946
04/30/99,02:55:01,97,35,-27,1,946
04/30/99,03:00:01,117,25,-27,1,946
04/30/99,03:05:01,95,35,-27,1,946
04/30/99,03:10:01,108,35,-27,1,946
04/30/99,03:15:01,100,25,-27,1,946
04/30/99,03:20:01,119,23,-27,1,946
04/30/99,03:25:01,126,21,-27,1,946
04/30/99,03:30:01,104,32,-27,1,946
04/30/99,03:35:01,103,27,-27,1,946
04/30/99,03:40:01,115,36,-27,1,946
04/30/99,03:45:01,92,21,-27,1,946
04/30/99,03:50:01,79,27,-27,1,946
04/30/99,03:55:01,84,25,-27,1,946
04/30/99,04:00:01,71,26,-27,1,946
04/30/99,04:05:01,51,342,-27,1,946
04/30/99,04:10:01,71,18,-27,1,946
04/30/99,04:15:01,64,15,-27,1,946
04/30/99,04:20:01,49,27,-27,1,946
04/30/99,04:25:01,39,23,-25,1,946
04/30/99,04:30:01,15,23,-25,1,946
04/30/99,04:35:01,17,34,-25,1,946
04/30/99,04:40:01,12,23,-25,1,946
04/30/99,04:45:01,12,9,-25,1,946
04/30/99,04:50:01,12,9,-25,1,946
04/30/99,04:55:01,2,317,-25,1,946
04/30/99,05:00:01,2,317,-25,1,946
04/30/99,05:05:01,2,317,-25,1,946
04/30/99,05:10:01,8,89,-25,1,946
04/30/99,05:15:01,8,89,-25,1,946
04/30/99,05:20:01,2,141,-25,1,946
04/30/99,05:25:01,2,141,-25,1,946
04/30/99,05:30:01,2,141,-25,1,946
04/30/99,05:35:01,2,141,-25,1,946
04/30/99,05:40:01,2,141,-25,1,946
04/30/99,05:45:01,2,113,-25,1,946
04/30/99,05:50:01,12,97,-25,1,946
04/30/99,05:55:01,12,86,-25,1,946
04/30/99,06:00:01,12,76,-25,1,946
04/30/99,06:05:01,12,76,-25,1,946
04/30/99,06:10:01,14,49,-25,1,946
04/30/99,06:15:01,3,29,-25,1,946
04/30/99,06:20:01,3,29,-25,1,946
04/30/99,06:25:01,25,153,-25,1,946
04/30/99,06:30:01,78,153,-25,1,946
04/30/99,06:35:01,90,153,-25,1,946
04/30/99,06:40:01,112,163,-25,1,946
04/30/99,06:45:01,104,163,-25,1,946
04/30/99,06:50:01,131,163,-25,1,946
04/30/99,06:55:01,143,162,-25,1,946
04/30/99,07:00:01,189,164,-25,1,946
04/30/99,07:05:01,132,169,-25,1,946
04/30/99,07:10:01,134,172,-25,1,948
04/30/99,07:15:01,137,164,-25,1,948
04/30/99,07:20:01,153,168,-25,1,948
04/30/99,07:25:01,154,168,-25,1,948
04/30/99,07:30:01,169,179,-25,1,948
04/30/99,07:35:01,179,179,-25,1,948
04/30/99,07:40:01,165,180,-25,1,948
04/30/99,07:45:01,228,179,-25,1,948
04/30/99,07:50:01,192,181,-25,1,948
04/30/99,07:55:01,195,180,-25,1,948
04/30/99,08:00:01,188,180,-25,1,948
04/30/99,08:05:01,182,183,-25,1,948
04/30/99,08:10:01,187,185,-25,1,948
04/30/99,08:15:01,194,172,-25,1,948
04/30/99,08:20:01,202,184,-25,1,948
04/30/99,08:25:01,158,174,-25,1,948
04/30/99,08:30:01,162,174,-25,1,948
04/30/99,08:35:01,174,184,-25,1,948
04/30/99,08:40:01,191,174,-25,1,948
04/30/99,08:45:01,168,174,-25,1,948
04/30/99,08:50:01,140,174,-25,1,948
04/30/99,08:55:01,139,186,-25,1,948
04/30/99,09:00:01,153,179,-25,1,948
04/30/99,09:05:01,135,189,-25,1,948
04/30/99,09:10:01,156,179,-25,1,948
04/30/99,09:15:01,174,179,-25,1,948
04/30/99,09:20:01,142,179,-25,1,948
04/30/99,09:25:01,119,166,-25,1,948
04/30/99,09:30:01,128,166,-25,1,948
04/30/99,09:35:01,104,156,-25,1,948
04/30/99,09:40:01,70,169,-25,1,948
04/30/99,09:45:01,85,159,-25,1,948
04/30/99,09:50:01,86,175,-25,1,948
04/30/99,09:55:01,101,175,-25,1,948
04/30/99,10:00:01,109,175,-25,1,948
04/30/99,10:05:01,102,161,-25,1,948
04/30/99,10:10:01,107,173,-25,1,948
04/30/99,10:15:01,72,173,-25,1,948
04/30/99,10:20:01,83,173,-25,1,948
04/30/99,10:25:01,90,184,-25,1,948
04/30/99,10:30:01,100,174,-25,1,948
04/30/99,10:35:01,90,174,-25,1,948
04/30/99,10:40:01,90,163,-25,1,948
04/30/99,10:45:01,77,174,-25,1,948
04/30/99,10:50:01,77,164,-25,1,948
04/30/99,10:55:01,65,164,-25,1,948
04/30/99,11:00:01,79,164,-25,1,948
04/30/99,11:05:01,81,164,-25,1,948
04/30/99,11:10:01,66,164,-25,1,948
04/30/99,11:15:01,69,165,-25,1,948
04/30/99,11:20:01,73,165,-25,1,948
04/30/99,11:25:01,88,175,-25,1,948
04/30/99,11:30:01,78,175,-25,1,948
04/30/99,11:35:01,70,175,-25,1,948
04/30/99,11:40:01,62,175,-25,1,948
04/30/99,11:45:01,62,175,-25,1,948
04/30/99,11:50:01,98,185,-25,1,948
04/30/99,11:55:01,131,185,-25,1,948
04/30/99,12:00:01,162,174,-25,1,948
04/30/99,12:05:01,153,174,-25,1,948
04/30/99,12:10:01,159,174,-25,1,948
04/30/99,12:15:01,119,174,-25,1,948
04/30/99,12:20:01,142,174,-25,1,948
04/30/99,12:25:01,152,176,-25,1,948
04/30/99,12:30:01,148,175,-25,1,948
04/30/99,12:35:01,172,175,-25,1,948
04/30/99,12:40:01,176,174,-25,1,948
04/30/99,12:45:01,206,162,-25,1,948
04/30/99,12:50:01,157,167,-25,1,948
04/30/99,12:55:01,204,164,-25,1,948
04/30/99,13:00:01,179,175,-25,1,948
04/30/99,13:05:01,168,177,-25,1,948
04/30/99,13:10:01,136,160,-25,1,948
04/30/99,13:15:01,192,169,-25,1,948
04/30/99,13:20:01,185,178,-25,1,948
04/30/99,13:25:01,178,177,-25,1,948
04/30/99,13:30:01,200,177,-25,1,948
04/30/99,13:35:01,188,177,-25,1,948
04/30/99,13:40:01,170,177,-25,1,948
04/30/99,13:45:01,176,177,-25,1,948
04/30/99,13:50:01,166,187,-25,1,948
04/30/99,13:55:01,151,187,-25,1,948
04/30/99,14:00:01,150,187,-25,1,948
04/30/99,14:05:01,150,187,-25,1,948
04/30/99,14:10:01,187,187,-25,1,948
04/30/99,14:15:01,164,187,-25,1,948
04/30/99,14:20:01,154,177,-25,1,948
04/30/99,14:25:01,159,187,-25,1,948
04/30/99,14:30:01,156,187,-25,1,948
04/30/99,14:35:01,126,187,-25,1,948
04/30/99,14:40:01,144,187,-25,1,948
04/30/99,14:45:01,152,187,-25,1,948
04/30/99,14:50:01,126,199,-25,1,948
04/30/99,14:55:01,142,199,-25,1,948
04/30/99,15:00:01,104,199,-25,1,948
04/30/99,15:05:01,105,189,-25,1,950
04/30/99,15:10:01,116,189,-25,1,950
04/30/99,15:15:01,128,176,-25,1,950
04/30/99,15:20:01,128,176,-25,1,950
04/30/99,15:25:01,117,176,-25,1,950
04/30/99,15:30:01,132,176,-25,1,950
04/30/99,15:35:01,147,176,-25,1,950
04/30/99,15:40:01,146,176,-25,1,950
04/30/99,15:45:01,136,176,-25,1,950
04/30/99,15:50:01,142,176,-25,1,950
04/30/99,15:55:01,115,176,-25,1,950
04/30/99,16:00:01,134,186,-25,1,950
04/30/99,16:05:01,125,186,-25,1,950
04/30/99,16:10:01,113,186,-25,1,950
04/30/99,16:15:01,117,186,-25,1,950
04/30/99,16:20:01,116,186,-25,1,950
04/30/99,16:25:01,105,186,-25,1,950
04/30/99,16:30:01,86,186,-25,1,950
04/30/99,16:35:01,92,186,-25,1,950
04/30/99,16:40:01,85,186,-25,1,950
04/30/99,16:45:01,85,185,-25,1,950
04/30/99,16:50:01,111,185,-25,1,950
04/30/99,16:55:01,102,185,-25,1,950
04/30/99,17:00:01,102,185,-25,1,950
04/30/99,17:05:01,120,186,-25,1,950
04/30/99,17:10:01,117,186,-23,1,950
04/30/99,17:15:01,137,186,-23,1,950
04/30/99,17:20:01,179,178,-23,1,950
04/30/99,17:25:01,146,178,-23,1,950
04/30/99,17:30:01,102,162,-23,1,950
04/30/99,17:35:01,103,170,-23,1,950
04/30/99,17:40:01,104,180,-23,1,950
04/30/99,17:45:01,110,180,-23,1,950
04/30/99,17:50:01,137,181,-23,1,950
04/30/99,17:55:01,149,181,-23,1,950
04/30/99,18:00:01,106,181,-23,1,950
04/30/99,18:05:01,118,167,-23,1,950
04/30/99,18:10:01,145,177,-23,1,950
04/30/99,18:15:01,105,180,-23,1,950
04/30/99,18:20:01,97,172,-23,1,950
04/30/99,18:25:01,110,175,-23,1,950
04/30/99,18:30:01,101,175,-23,1,950
04/30/99,18:35:01,109,175,-23,1,950
04/30/99,18:40:01,96,175,-23,1,950
04/30/99,18:45:01,96,188,-23,1,950
04/30/99,18:50:01,93,198,-23,1,950
04/30/99,18:55:01,78,208,-23,1,950
04/30/99,19:00:01,78,192,-23,1,950
04/30/99,19:05:01,78,189,-23,1,950
04/30/99,19:10:01,96,202,-23,1,950
04/30/99,19:15:01,111,201,-23,1,950
04/30/99,19:20:01,100,213,-23,1,950
04/30/99,19:25:01,100,206,-23,1,950
04/30/99,19:30:01,100,206,-23,1,950
04/30/99,19:35:01,89,206,-23,1,950
04/30/99,19:40:01,89,216,-23,1,950
04/30/99,19:45:01,79,216,-23,1,950
04/30/99,19:50:01,55,216,-23,1,950
04/30/99,19:55:01,65,216,-23,1,950
04/30/99,20:00:01,76,216,-23,1,950
04/30/99,20:05:01,76,216,-23,1,950
04/30/99,20:10:01,76,216,-23,1,950
04/30/99,20:15:01,86,216,-23,1,950
04/30/99,20:20:01,96,216,-23,1,950
04/30/99,20:25:01,96,206,-23,1,950
04/30/99,20:30:01,107,195,-23,1,950
04/30/99,20:35:01,114,195,-23,1,950
04/30/99,20:40:01,135,184,-23,1,950
04/30/99,20:45:01,127,184,-23,1,950
04/30/99,20:50:01,128,184,-23,1,950
04/30/99,20:55:01,128,184,-23,1,950
04/30/99,21:00:01,138,195,-23,1,950
04/30/99,21:05:01,138,205,-23,1,950
04/30/99,21:10:01,149,205,-23,1,950
04/30/99,21:15:01,163,205,-23,1,950
04/30/99,21:20:01,175,194,-23,1,950
04/30/99,21:25:01,156,184,-23,1,950
04/30/99,21:30:01,139,184,-23,1,950
04/30/99,21:35:01,120,184,-23,1,950
04/30/99,21:40:01,117,184,-23,1,950
04/30/99,21:45:01,127,184,-23,1,950
04/30/99,21:50:01,127,184,-23,1,950
04/30/99,21:55:01,94,194,-23,1,950
04/30/99,22:00:01,94,194,-23,1,950
04/30/99,22:05:01,81,194,-23,1,950
04/30/99,22:10:01,58,204,-23,1,950
04/30/99,22:15:01,58,204,-23,1,950
04/30/99,22:20:01,70,204,-23,1,950
04/30/99,22:25:01,70,204,-23,1,950
04/30/99,22:30:01,72,204,-23,1,950
04/30/99,22:35:01,83,204,-23,1,950
04/30/99,22:40:01,81,204,-23,1,950
04/30/99,22:45:01,84,204,-23,1,950
04/30/99,22:50:01,75,205,-23,1,950
04/30/99,22:55:01,74,205,-23,1,950
04/30/99,23:00:01,62,205,-23,1,950
04/30/99,23:05:01,62,205,-23,1,950
04/30/99,23:10:01,72,195,-23,1,950
04/30/99,23:15:01,58,198,-23,1,950
04/30/99,23:20:01,49,209,-23,1,950
04/30/99,23:25:01,59,203,-23,1,950
04/30/99,23:30:01,45,209,-23,1,950
04/30/99,23:35:01,61,199,-23,1,950
04/30/99,23:40:01,51,224,-23,1,950
04/30/99,23:45:01,51,216,-23,1,950
04/30/99,23:50:01,49,232,-23,1,950
04/30/99,23:55:01,57,250,-23,1,950
05/01/99,00:00:01,,,,,
